SL-12 R/B(2)

Last updated on Wed Jul 02 2025 00:02:13 GMT+0000 (Coordinated Universal Time)

1 15772U 85042D 25182.63042981 .00000087 00000+0 60551-4 0 9997 2 15772 71.1080 258.0964 0034393 159.7450 305.6404 14.21891792 78706
UTC large
Height (km)
Speed (km/s)
/
Latitude / Longitude
Inclination (degrees)
Orbital Period (minutes)
Azimuth
Elevation
Range (km)
Doppler Factor

Next 0 passes for location: London (51.5072 / 0.1276)

Sorry there are no passes over London.